When you browse on this site, cookies collect data to enhance your experience and personalize the content and advertising you see.
Visit our Privacy Policy to learn more. By continuing to use the site, you agree to this use of cookies and data.
  • en France
  • Liste des pays
  • À 7 jours
  • Température de l'eau
  • Carte satellitaire
  • Carte météo
  • Widgets météo
  • user-avatar
    Se connecter

    Météo par heure à Abdurashid

    Ce jour, 10 Décembre, Lundi

    Heure Température Précipitation Vent Pression Humidité
    00:00 +4°C° 0 mm 4 m/s 763 mmHg 83%
    01:00 +4°C° 0 mm 4 m/s 763 mmHg 83%
    02:00 +4°C° 0 mm 4 m/s 762 mmHg 83%
    03:00 +4°C° 0 mm 4 m/s 762 mmHg 84%
    04:00 +4°C° 0 mm 4 m/s 762 mmHg 83%
    05:00 +4°C° 0 mm 4 m/s 762 mmHg 83%
    06:00 +4°C° 0 mm 4 m/s 761 mmHg 83%
    07:00 +5°C° 0 mm 5 m/s 761 mmHg 79%
    08:00 +6°C° 0 mm 5 m/s 761 mmHg 76%
    09:00 +6°C° 0 mm 5 m/s 760 mmHg 73%
    10:00 +7°C° 0 mm 5 m/s 760 mmHg 68%
    11:00 +8°C° 0 mm 5 m/s 759 mmHg 64%
    12:00 +10°C° 0 mm 6 m/s 759 mmHg 60%
    13:00 +9°C° 0 mm 6 m/s 759 mmHg 62%
    14:00 +9°C° 0 mm 6 m/s 759 mmHg 65%
    15:00 +9°C° 0 mm 5 m/s 758 mmHg 67%
    16:00 +8°C° 0 mm 5 m/s 758 mmHg 72%
    17:00 +7°C° 0 mm 5 m/s 758 mmHg 78%
    18:00 +7°C° 0 mm 4 m/s 758 mmHg 83%
    19:00 +7°C° 0 mm 4 m/s 758 mmHg 83%
    20:00 +7°C° 0 mm 3 m/s 758 mmHg 84%
    21:00 +7°C° 0 mm 3 m/s 758 mmHg 85%
    22:00 +7°C° 0 mm 2 m/s 758 mmHg 84%
    23:00 +7°C° 0 mm 2 m/s 758 mmHg 84%

    Demain, 11 Décembre, Mardi

    Heure Température Précipitation Vent Pression Humidité
    00:00 +8°C° 0 mm 1 m/s 758 mmHg 83%
    01:00 +8°C° 0 mm 1 m/s 758 mmHg 83%
    02:00 +8°C° 0 mm 1 m/s 758 mmHg 83%
    03:00 +8°C° 0 mm 1 m/s 758 mmHg 82%
    04:00 +8°C° 0 mm 1 m/s 757 mmHg 83%
    05:00 +8°C° 0 mm 1 m/s 757 mmHg 83%
    06:00 +8°C° 0 mm 1 m/s 757 mmHg 83%
    07:00 +8°C° 0 mm 1 m/s 757 mmHg 81%
    08:00 +8°C° 0 mm 1 m/s 757 mmHg 79%
    09:00 +9°C° 0 mm 1 m/s 757 mmHg 77%
    10:00 +10°C° 0 mm 1 m/s 756 mmHg 72%
    11:00 +11°C° 0 mm 1 m/s 756 mmHg 67%
    12:00 +12°C° 0 mm 1 m/s 755 mmHg 62%
    13:00 +12°C° 0 mm 2 m/s 754 mmHg 62%
    14:00 +13°C° 0 mm 2 m/s 754 mmHg 62%
    15:00 +12°C° 0 mm 3 m/s 753 mmHg 62%
    16:00 +11°C° 0 mm 3 m/s 753 mmHg 66%
    17:00 +10°C° 0 mm 4 m/s 753 mmHg 71%
    18:00 +8°C° 0 mm 4 m/s 753 mmHg 76%
    19:00 +8°C° 0 mm 4 m/s 752 mmHg 74%
    20:00 +10°C° 0 mm 3 m/s 752 mmHg 72%
    21:00 +10°C° 0 mm 3 m/s 751 mmHg 71%
    22:00 +10°C° 0 mm 3 m/s 751 mmHg 71%
    23:00 +9°C° 0 mm 3 m/s 751 mmHg 71%

    Après-demain, 12 Décembre, Mercredi

    Heure Température Précipitation Vent Pression Humidité
    00:00 +9°C° 0 mm 3 m/s 752 mmHg 72%
    01:00 +8°C° 0 mm 4 m/s 752 mmHg 73%
    02:00 +8°C° 0 mm 5 m/s 753 mmHg 74%
    03:00 +8°C° 0 mm 7 m/s 754 mmHg 75%
    04:00 +8°C° 0.2 mm 7 m/s 755 mmHg 77%
    05:00 +8°C° 0.2 mm 7 m/s 755 mmHg 79%
    06:00 +8°C° 0.2 mm 7 m/s 756 mmHg 82%
    07:00 +8°C° 0.3 mm 7 m/s 757 mmHg 80%
    08:00 +8°C° 0.3 mm 6 m/s 758 mmHg 79%
    09:00 +9°C° 0.3 mm 6 m/s 759 mmHg 77%
    10:00 +10°C° 0 mm 6 m/s 759 mmHg 71%
    11:00 +10°C° 0 mm 5 m/s 759 mmHg 64%
    12:00 +12°C° 0 mm 5 m/s 759 mmHg 58%
    13:00 +12°C° 0 mm 4 m/s 759 mmHg 56%
    14:00 +12°C° 0 mm 4 m/s 759 mmHg 55%
    15:00 +12°C° 0 mm 3 m/s 759 mmHg 54%
    16:00 +11°C° 0 mm 3 m/s 759 mmHg 60%
    17:00 +10°C° 0 mm 2 m/s 759 mmHg 65%
    18:00 +9°C° 0 mm 2 m/s 760 mmHg 71%
    19:00 +8°C° 0 mm 2 m/s 760 mmHg 73%
    20:00 +9°C° 0 mm 1 m/s 760 mmHg 75%
    21:00 +9°C° 0 mm 1 m/s 759 mmHg 76%
    22:00 +8°C° 0 mm 2 m/s 759 mmHg 78%
    23:00 +7°C° 0 mm 2 m/s 759 mmHg 79%

    13 Décembre, Jeudi

    Heure Température Précipitation Vent Pression Humidité
    00:00 +7°C° 0 mm 2 m/s 759 mmHg 80%
    01:00 +7°C° 0.1 mm 2 m/s 759 mmHg 82%
    02:00 +7°C° 0.1 mm 2 m/s 759 mmHg 84%
    03:00 +6°C° 0.1 mm 2 m/s 758 mmHg 87%
    04:00 +6°C° 0.3 mm 2 m/s 758 mmHg 89%
    05:00 +6°C° 0.3 mm 2 m/s 759 mmHg 90%
    06:00 +6°C° 0.3 mm 2 m/s 759 mmHg 92%
    07:00 +6°C° 0.4 mm 2 m/s 759 mmHg 92%
    08:00 +6°C° 0.4 mm 2 m/s 759 mmHg 91%
    09:00 +6°C° 0.4 mm 2 m/s 760 mmHg 91%
    10:00 +6°C° 0.3 mm 2 m/s 760 mmHg 88%
    11:00 +7°C° 0.3 mm 3 m/s 761 mmHg 86%
    12:00 +7°C° 0.3 mm 3 m/s 761 mmHg 83%
    13:00 +6°C° 0.4 mm 4 m/s 761 mmHg 83%
    14:00 +6°C° 0.4 mm 4 m/s 762 mmHg 84%
    15:00 +6°C° 0.4 mm 4 m/s 762 mmHg 84%
    16:00 +7°C° 0.2 mm 3 m/s 763 mmHg 85%
    17:00 +5°C° 0.2 mm 3 m/s 764 mmHg 85%
    18:00 +5°C° 0.2 mm 3 m/s 764 mmHg 86%
    19:00 +6°C° 0.1 mm 2 m/s 765 mmHg 86%
    20:00 +6°C° 0.1 mm 2 m/s 765 mmHg 85%
    21:00 +6°C° 0.1 mm 2 m/s 765 mmHg 84%
    22:00 +6°C° 0.1 mm 2 m/s 765 mmHg 83%
    23:00 +6°C° 0.1 mm 2 m/s 765 mmHg 82%

    14 Décembre, Vendredi

    Heure Température Précipitation Vent Pression Humidité
    00:00 +6°C° 0.1 mm 2 m/s 765 mmHg 82%
    01:00 +5°C° 0 mm 2 m/s 765 mmHg 82%
    02:00 +5°C° 0 mm 2 m/s 766 mmHg 83%
    03:00 +5°C° 0 mm 2 m/s 766 mmHg 84%
    04:00 +5°C° 0 mm 2 m/s 766 mmHg 84%
    05:00 +4°C° 0 mm 2 m/s 766 mmHg 84%
    06:00 +4°C° 0 mm 2 m/s 766 mmHg 84%
    07:00 +5°C° 0 mm 2 m/s 767 mmHg 82%
    08:00 +5°C° 0 mm 2 m/s 767 mmHg 80%
    09:00 +5°C° 0 mm 2 m/s 767 mmHg 77%
    10:00 +6°C° 0 mm 2 m/s 767 mmHg 73%
    11:00 +6°C° 0 mm 2 m/s 767 mmHg 69%
    12:00 +7°C° 0 mm 2 m/s 766 mmHg 65%
    13:00 +7°C° 0 mm 2 m/s 767 mmHg 64%
    14:00 +8°C° 0 mm 1 m/s 767 mmHg 62%
    15:00 +8°C° 0 mm 1 m/s 767 mmHg 61%
    16:00 +7°C° 0 mm 1 m/s 767 mmHg 66%
    17:00 +6°C° 0 mm 1 m/s 768 mmHg 71%
    18:00 +6°C° 0 mm 1 m/s 768 mmHg 75%
    19:00 +5°C° 0 mm 1 m/s 768 mmHg 76%
    20:00 +5°C° 0 mm 1 m/s 768 mmHg 78%
    21:00 +5°C° 0 mm 1 m/s 768 mmHg 79%
    22:00 +5°C° 0 mm 1 m/s 768 mmHg 79%
    23:00 +4°C° 0 mm 1 m/s 768 mmHg 79%

    15 Décembre, Samedi

    Heure Température Précipitation Vent Pression Humidité
    00:00 +4°C° 0 mm 1 m/s 768 mmHg 79%
    01:00 +4°C° 0 mm 1 m/s 768 mmHg 78%
    02:00 +4°C° 0 mm 1 m/s 768 mmHg 78%
    03:00 +4°C° 0 mm 1 m/s 769 mmHg 77%
    04:00 +4°C° 0 mm 1 m/s 769 mmHg 76%
    05:00 +4°C° 0 mm 1 m/s 769 mmHg 76%
    06:00 +3°C° 0 mm 1 m/s 769 mmHg 75%
    07:00 +4°C° 0 mm 1 m/s 769 mmHg 72%
    08:00 +5°C° 0 mm 1 m/s 769 mmHg 69%
    09:00 +6°C° 0 mm 1 m/s 769 mmHg 66%
    10:00 +6°C° 0 mm 2 m/s 769 mmHg 62%
    11:00 +7°C° 0 mm 2 m/s 769 mmHg 58%
    12:00 +8°C° 0 mm 2 m/s 768 mmHg 54%
    13:00 +9°C° 0 mm 2 m/s 768 mmHg 55%
    14:00 +9°C° 0 mm 3 m/s 768 mmHg 56%
    15:00 +9°C° 0 mm 3 m/s 768 mmHg 57%
    16:00 +8°C° 0 mm 3 m/s 769 mmHg 63%
    17:00 +5°C° 0 mm 3 m/s 769 mmHg 68%
    18:00 +4°C° 0 mm 3 m/s 769 mmHg 74%
    19:00 +4°C° 0 mm 3 m/s 769 mmHg 74%
    20:00 +4°C° 0 mm 3 m/s 769 mmHg 75%
    21:00 +4°C° 0 mm 3 m/s 769 mmHg 75%
    22:00 +4°C° 0 mm 3 m/s 769 mmHg 75%
    23:00 +5°C° 0 mm 2 m/s 769 mmHg 74%
    Voir plus